Estación municipal de Les Masies de Roda (Osona, Ter)

Consulta los datos en tiempo real de la estación municipal de Les Masies de Roda





Hora UTC 09:45
Temperatura 18.5 ºC
Suelo 15 cm 23.5 ºC
Humedad 70.0 %
Presión 1012.0 hPa
Pluja 0.0 mm
Velocidad viento 2.0 km/h
Dirección viento ESE
Radiación solar 595.6 W/m²

Datos diarios 2026-05-04



Hora UTC (invierno +1h; verano +2h)
Temperatura (ºC) Humedad (%) Presión (hPa) Velocidad viento (km/h) Precipitación (mm) Radiación solar (W/m²)
Hora UTC Aire Suelo 15 cm Humedad Presión Vel. Dir. Vel. Max Dir. Intent. máx 5 min. Rad. Sol.
00:05 12.7 12.4 96.2 1013.6 2.8 WSW 2.8 WSW 0.0 0.1
00:10 12.7 12.4 96.2 1013.5 2.1 W 3.5 W 0.0 0.1
00:15 12.7 12.3 96.0 1013.5 2.6 W 3.9 W 0.0 0.1
00:20 12.7 12.3 96.0 1013.5 2.1 WSW 3.5 WSW 0.0 0.1
00:25 12.7 12.3 96.1 1013.6 1.0 WNW 3.5 W 0.0 0.1
00:30 12.7 12.3 96.0 1013.5 2.1 W 2.8 WSW 0.0 0.1
00:35 12.7 12.3 96.1 1013.6 2.0 WNW 3.9 WNW 0.0 0.1
00:40 12.7 12.3 96.0 1013.5 2.3 WNW 5.0 W 0.0 0.1
00:45 12.7 12.3 95.9 1013.6 2.1 W 3.5 WNW 0.0 0.1
00:50 12.7 12.3 95.9 1013.6 2.5 W 4.2 WSW 0.0 0.1
00:55 12.7 12.3 95.9 1013.6 1.3 W 3.2 WNW 0.0 0.1
01:00 12.7 12.3 95.8 1013.5 1.8 WNW 3.5 NW 0.0 0.1
01:05 12.7 12.3 95.6 1013.5 1.2 NNW 3.2 NNE 0.0 0.1
01:10 12.8 12.3 95.3 1013.4 1.6 N 3.9 NNE 0.0 0.1
01:15 12.9 12.3 95.2 1013.3 1.5 NNE 3.5 NNE 0.0 0.1
01:20 12.9 12.4 94.8 1013.2 0.7 NNE 2.5 N 0.0 0.1
01:25 12.9 12.4 94.3 1013.3 1.0 NE 3.2 NNE 0.0 0.1
01:30 12.9 12.4 94.0 1013.2 1.5 NE 3.9 NE 0.0 0.1
01:35 13.0 12.4 93.9 1013.3 0.5 NE 2.5 NE 0.0 0.1
01:40 13.0 12.3 93.9 1013.2 0.1 NE 2.1 NE 0.0 0.1
01:45 13.0 12.2 94.0 1013.2 0.6 N 2.5 NNE 0.0 0.1
01:50 13.0 12.0 94.1 1013.0 0.6 ENE 2.8 NE 0.0 0.1
01:55 12.9 11.8 94.1 1013.2 1.9 E 3.9 ENE 0.0 0.1
02:00 12.9 11.9 94.4 1013.1 2.9 ENE 4.6 ENE 0.0 0.1
02:05 12.9 11.9 94.5 1013.1 1.6 ENE 3.5 E 0.0 0.1
02:10 12.9 11.9 94.7 1012.9 0.9 NE 2.5 ENE 0.0 0.1
02:15 12.8 11.8 94.8 1013.0 1.7 NE 4.6 NE 0.0 0.1
02:20 12.7 11.6 95.0 1012.9 0.2 E 2.8 E 0.0 0.1
02:25 12.6 11.6 95.1 1013.1 0.2 SE 2.8 E 0.0 0.1
02:30 12.6 11.6 95.4 1012.9 0.9 NNE 2.5 NNE 0.0 0.1
02:35 12.6 11.6 95.5 1013.0 0.3 NNE 2.1 NNE 0.0 0.1
02:40 12.6 11.5 95.6 1012.8 0.0 NNE 0.0 NNE 0.0 0.1
02:45 12.6 11.3 95.7 1012.9 0.5 NNE 2.5 NNE 0.0 0.1
02:50 12.4 11.1 95.7 1012.7 0.0 NNE 0.0 NNE 0.0 0.1
02:55 12.2 10.9 95.7 1012.8 0.0 NNE 0.0 NNE 0.0 0.1
03:00 12.2 10.6 96.3 1012.6 0.0 NNE 0.0 NNE 0.0 0.1
03:05 12.0 10.6 96.2 1012.8 1.2 NNW 2.8 NNW 0.0 0.1
03:10 11.9 10.7 96.3 1012.8 0.4 N 2.1 N 0.0 0.1
03:15 11.9 10.9 96.7 1012.9 0.2 N 1.8 N 0.0 0.1
03:20 12.0 11.1 96.8 1012.8 0.0 NNE 0.0 N 0.0 0.1
03:25 12.0 11.3 97.0 1013.0 0.9 SSE 4.6 SSE 0.0 0.1
03:30 12.3 11.6 97.2 1012.7 2.5 SSE 5.3 SSE 0.0 0.1
03:35 12.4 11.7 97.1 1012.7 0.2 SSE 2.8 SSE 0.0 0.1
03:40 12.4 11.7 97.0 1012.6 0.7 ENE 2.1 ENE 0.0 0.1
03:45 12.5 11.7 97.0 1012.6 1.9 ENE 3.9 ENE 0.0 0.1
03:50 12.5 11.6 96.9 1012.6 2.2 N 3.2 NNE 0.0 0.1
03:55 12.4 11.6 97.0 1012.6 3.8 NNW 5.3 NNW 0.0 0.1
04:00 12.3 11.6 96.9 1012.7 4.3 NW 6.4 NNW 0.0 0.1
04:05 12.2 11.6 97.0 1012.7 2.2 NNW 3.5 NW 0.0 0.1
04:10 12.2 11.6 97.2 1012.7 2.1 N 4.2 N 0.0 0.1
04:15 12.3 11.7 97.3 1012.6 0.6 N 2.8 N 0.0 0.1
04:20 12.3 11.7 97.3 1012.6 0.4 NNE 2.5 NNE 0.0 0.1
04:25 12.3 11.7 97.3 1012.5 1.9 NNW 3.5 N 0.0 0.1
04:30 12.3 11.7 97.2 1012.5 1.1 N 3.9 NNW 0.0 0.2
04:35 12.3 11.6 97.1 1012.4 0.8 NW 3.2 NW 0.0 0.4
04:40 12.2 11.5 97.1 1012.5 2.8 NNW 4.2 NNW 0.0 0.9
04:45 12.2 11.4 97.1 1012.4 0.0 NW 1.4 NW 0.0 1.4
04:50 12.2 11.5 97.1 1012.5 0.0 NNE 0.0 NNE 0.0 2.5
04:55 12.2 11.5 97.2 1012.3 0.0 NNE 0.0 NNE 0.0 3.8
05:00 12.2 11.3 97.1 1012.6 1.2 WSW 2.8 WSW 0.0 4.8
05:05 12.1 11.3 97.0 1012.5 1.1 SSW 3.5 SSW 0.0 4.6
05:10 12.2 11.5 97.3 1012.6 1.9 SSE 3.5 SSE 0.0 6.8
05:15 12.4 11.7 97.4 1012.5 1.5 S 3.2 S 0.0 10.1
05:20 12.5 11.9 97.4 1012.6 0.2 SW 1.8 SW 0.0 18.3
05:25 12.5 12.0 97.3 1012.4 0.0 WNW 1.4 WNW 0.0 24.9
05:30 12.5 11.9 97.3 1012.5 0.8 SSE 3.9 SSE 0.0 43.7
05:35 12.5 12.0 97.3 1012.3 2.4 S 3.5 SSE 0.0 58.9
05:40 12.7 12.2 97.2 1012.5 2.7 SSW 4.6 S 0.0 97.6
05:45 12.9 12.7 97.2 1012.4 2.3 SSW 5.7 S 0.0 121.8
05:50 13.2 13.2 97.0 1012.5 1.3 SSW 4.2 SSW 0.0 132.6
05:55 13.4 13.5 96.3 1012.4 3.3 SW 4.2 WSW 0.0 101.3
06:00 13.3 13.5 95.2 1012.6 3.8 S 6.0 SSE 0.0 57.7
06:05 13.2 13.4 94.4 1012.5 2.4 SSW 5.0 SSW 0.0 43.3
06:10 13.3 13.3 94.2 1012.6 2.8 S 4.2 S 0.0 79.7
06:15 13.4 13.4 94.3 1012.7 3.6 SSW 5.7 SW 0.0 118.7
06:20 13.6 13.8 94.4 1012.6 2.7 SW 4.2 SW 0.0 134.5
06:25 13.7 14.1 94.1 1012.7 2.6 SSW 6.0 SW 0.0 113.9
06:30 13.8 14.2 92.9 1012.6 3.7 SSW 6.0 SSE 0.0 80.1
06:35 13.7 14.1 91.0 1012.7 3.2 S 5.7 S 0.0 71.8
06:40 13.7 14.0 91.0 1012.6 4.1 SSW 6.0 S 0.0 73.6
06:45 13.8 14.0 91.5 1012.8 4.4 S 6.7 SSE 0.0 82.5
06:50 13.8 14.1 90.9 1012.6 3.3 SSE 6.7 SSE 0.0 89.3
06:55 13.9 14.2 90.1 1012.7 3.0 SSE 5.3 SSE 0.0 77.6
07:00 13.9 14.2 90.1 1012.5 1.5 SE 3.9 SSE 0.0 77.4
07:05 14.0 14.3 89.2 1012.6 0.9 ESE 2.8 E 0.0 101.6
07:10 14.1 14.5 88.9 1012.5 2.3 NE 5.7 NE 0.0 191.5
07:15 14.4 15.0 87.7 1012.6 3.4 NE 5.0 NNE 0.0 463.6
07:20 15.1 16.4 85.2 1012.5 2.7 ESE 5.3 ESE 0.0 433.9
07:25 15.2 17.4 84.8 1012.7 3.5 S 6.4 SW 0.0 436.2
07:30 15.6 18.2 84.0 1012.6 2.0 W 6.4 NW 0.0 384.9
07:35 15.6 18.5 82.9 1012.6 3.9 NW 6.4 WNW 0.0 227.6
07:40 15.0 17.6 84.9 1012.5 1.6 WNW 3.5 W 0.0 153.9
07:45 15.0 17.0 85.5 1012.6 1.2 W 3.5 WSW 0.0 352.0
07:50 15.7 17.4 83.9 1012.4 3.0 WNW 7.4 WNW 0.0 475.6
07:55 15.8 18.0 83.4 1012.5 5.6 WNW 8.5 WNW 0.0 480.5
08:00 16.2 18.7 81.4 1012.2 3.3 NW 7.4 NW 0.0 497.7
08:05 16.2 19.1 79.0 1012.3 5.7 NNW 8.5 NNW 0.0 520.0
08:10 15.9 19.2 79.0 1012.2 5.0 NW 8.5 NW 0.0 547.4
08:15 16.9 19.7 78.3 1012.3 4.2 W 7.4 WNW 0.0 572.4
08:20 17.1 20.4 71.7 1012.2 2.4 NW 5.7 WNW 0.0 589.2
08:25 17.0 20.8 72.1 1012.1 3.1 N 6.4 NNE 0.0 657.1
08:30 16.9 21.4 73.3 1012.1 4.8 NNW 9.5 NNW 0.0 552.0
08:35 16.8 21.4 76.5 1012.0 1.6 WSW 3.9 NW 0.0 597.0
08:40 17.3 22.2 73.0 1012.1 4.6 NNE 9.5 NNE 0.0 407.9
08:45 16.7 21.8 74.9 1011.9 3.2 N 6.7 NNE 0.0 293.7
08:50 16.5 21.1 77.1 1012.1 3.0 WNW 5.7 WSW 0.0 310.0
08:55 17.0 21.2 78.5 1012.0 5.6 WSW 10.6 W 0.0 658.7
09:00 18.2 22.5 75.2 1012.1 6.0 WSW 10.6 SW 0.0 718.3
09:05 18.5 23.7 70.7 1011.9 5.1 WNW 9.9 WNW 0.0 737.8
09:10 18.1 24.2 72.1 1011.9 5.0 NW 10.6 NNW 0.0 784.9
09:15 18.3 24.7 69.9 1011.8 2.0 NNW 8.8 NW 0.0 678.1
09:20 18.0 24.7 69.7 1011.8 3.5 NNW 8.5 NNW 0.0 445.8
09:25 18.1 24.2 71.2 1011.9 2.9 NW 8.5 NW 0.0 422.9
09:30 18.3 24.0 67.7 1011.8 2.6 NNE 5.3 N 0.0 412.5
09:35 18.3 23.8 71.5 1011.9 4.0 NW 6.7 NW 0.0 410.8
09:40 18.1 23.3 69.8 1011.8 1.7 NW 6.7 SSE 0.0 424.8
09:45 18.5 23.5 70.0 1012.0 2.0 ESE 5.0 SSE 0.0 595.6
Máxima 18.5 24.7 97.4 1013.6 6.0 WSW 10.6 NNW 0.0 784.9
Mínima 11.9 10.6 67.7 1011.8
Total 0.0